TimeCST,TemperatureF,Dew PointF,Humidity,Sea Level PressureIn,VisibilityMPH,Wind Direction,Wind SpeedMPH,Gust SpeedMPH,PrecipitationIn,Events,Conditions,WindDirDegrees,DateUTC
12:53 AM,36.0,34.0,93,30.12,8.0,Calm,Calm,-,N/A,,Clear,0,2012-02-18 06:53:00
1:53 AM,37.9,35.1,89,30.12,8.0,Calm,Calm,-,N/A,,Clear,0,2012-02-18 07:53:00
2:53 AM,37.0,35.1,93,30.11,7.0,Calm,Calm,-,N/A,,Clear,0,2012-02-18 08:53:00
3:53 AM,35.1,33.1,92,30.08,6.0,Calm,Calm,-,N/A,,Partly Cloudy,0,2012-02-18 09:53:00
4:53 AM,35.1,33.1,92,30.09,6.0,Calm,Calm,-,N/A,,Overcast,0,2012-02-18 10:53:00
5:53 AM,37.0,35.1,93,30.10,6.0,Calm,Calm,-,N/A,,Overcast,0,2012-02-18 11:53:00
6:53 AM,37.0,35.1,93,30.10,5.0,Calm,Calm,-,N/A,,Overcast,0,2012-02-18 12:53:00
7:53 AM,39.9,36.0,86,30.11,6.0,Calm,Calm,-,N/A,,Overcast,0,2012-02-18 13:53:00
8:53 AM,42.1,37.0,82,30.12,6.0,Calm,Calm,-,N/A,,Haze,0,2012-02-18 14:53:00
9:53 AM,44.1,37.0,76,30.12,8.0,North,6.9,-,N/A,,Overcast,10,2012-02-18 15:53:00
10:53 AM,45.0,36.0,71,30.13,9.0,NNE,10.4,-,N/A,,Overcast,20,2012-02-18 16:53:00
11:53 AM,46.0,36.0,68,30.11,10.0,NNE,9.2,-,N/A,,Overcast,30,2012-02-18 17:53:00
12:53 PM,46.9,33.1,59,30.09,10.0,NNE,11.5,-,N/A,,Overcast,30,2012-02-18 18:53:00
1:53 PM,48.0,33.1,56,30.06,10.0,NNE,13.8,-,N/A,,Overcast,30,2012-02-18 19:53:00
2:53 PM,46.4,32.0,57,30.05,10.0,NE,8.1,-,N/A,,Mostly Cloudy,40,2012-02-18 20:53:00
3:53 PM,46.0,33.1,61,30.05,10.0,NNE,10.4,-,N/A,,Partly Cloudy,30,2012-02-18 21:53:00
4:53 PM,45.0,32.0,60,30.05,10.0,NNE,9.2,-,N/A,,Overcast,20,2012-02-18 22:53:00
5:53 PM,44.1,32.0,63,30.06,10.0,NNE,8.1,-,N/A,,Overcast,20,2012-02-18 23:53:00
6:53 PM,43.0,30.9,62,30.05,10.0,NE,9.2,-,N/A,,Mostly Cloudy,40,2012-02-19 00:53:00
7:53 PM,42.1,32.0,67,30.04,10.0,NNE,10.4,-,N/A,,Overcast,30,2012-02-19 01:53:00
8:53 PM,42.1,30.9,65,30.04,10.0,NNE,11.5,-,N/A,,Overcast,30,2012-02-19 02:53:00
9:53 PM,42.1,30.9,65,30.02,10.0,NNE,10.4,-,N/A,,Overcast,30,2012-02-19 03:53:00
10:53 PM,41.0,32.0,70,30.03,10.0,North,10.4,-,N/A,,Overcast,360,2012-02-19 04:53:00
11:53 PM,41.0,30.9,67,30.03,10.0,NNE,9.2,-,N/A,,Overcast,20,2012-02-19 05:53:00